Weather in Borodianka

Ukraine / Kyiv Region     50°38′44″N   29°55′14″E
temp.,
°C
wind,
m/s
gust,
m/s
humid.,
%
clouds,
%
prec.,
mm/h
press.,
hPa
HPBL,
m
13 may, thu
thu1300:00+8se2389100 0.0 101245
03:00+7ssw2292100 0.0 101123
06:00+7sse249091 0.0 1010137
09:00+11sse4570100 0.0 1010736
12:00+15sse5753100 0.1 10091756
15:00+15s7955100 0.1 10091749
18:00+12sse5117298 0.1 1009807
21:00+11se51377100 0.1 1009609
14 may, fri
fri1400:00+11sse51384100 0.1 1009842
03:00+11se41292100 0.6 1008658
06:00+10se410915 0.3 1007330
09:00+14sse476311 0.3 1007464
12:00+19sse5745100 0.0 10061286
15:00+15s477099 0.0 1007401
18:00+14ssw3774100 0.0 1006425
21:00+12ssw3988100 0.0 1006343
15 may, sat
sat1500:00+12ssw4993100 0.2 1007312
03:00+10sw38975 0.4 1007204
06:00+9ssw3893100 0.0 1008183
09:00+12ssw3582100 0.0 1009316
12:00+11sw2593100 0.9 1010306
15:00+16wsw466419 1.0 10101245
18:00+17w46695 0.1 1010881
21:00+12wsw22883 0.1 101213
16 may, sun
sun1600:00+11sw22925 0.0 101213
03:00+10ssw22925 0.0 101311
06:00+10sse11923 0.0 101311
09:00+17se3469100 0.0 1013495
12:00+21se345022 0.0 10121323
15:00+23se4546100 0.1 10111998
18:00+20sse4767100 0.8 1010505
21:00+15e3686100 1.1 101091
17 may, mon
mon1700:00+14e31091100 0.0 1009187
03:00+14e2892100 0.2 1007214
06:00+14nnw2295100 0.9 100738
09:00+14n2396100 1.9 1006129
12:00+16nnw2388100 3.1 1005308
15:00+17wnw2385100 4.1 1004380
18:00+14wnw2698100 5.0 1004251
21:00+13w249994 7.4 1004159